CW3786 Weather Reports


Display with metric or nautical units.
time (UTC)temp
F
wind
direction
speed
MPH
gust
MPH
rain 1hr
in
rain 24hr
in
rain mn
in
humidity
%
barometer
mb
20260506003558 66 252 1.0 7.0 0.00 0.01 0.00 56 1008.5
20260506003053 65 255 0.0 1.0 0.00 0.01 0.00 59 1008.5
20260506002611 65 264 0.0 5.0 0.00 0.01 0.00 60 1008.4
20260506002104 64 269 0.0 5.0 0.00 0.01 0.00 61 1008.4
20260506001558 63 290 2.0 5.0 0.00 0.01 0.00 62 1008.4
20260506001131 62 216 0.0 3.0 0.00 0.01 0.00 64 1008.3
20260506000612 62 245 0.0 4.0 0.00 0.01 0.00 62 1008.3
20260506000058 63 203 0.0 4.0 0.00 0.01 0.00 60 1008.3
20260505235552 63 186 0.0 5.0 0.00 0.01 0.00 60 1008.4
20260505235200 64 207 0.0 6.0 0.00 0.01 0.00 60 1008.4
20260505234600 64 272 1.0 6.0 0.00 0.01 0.00 60 1008.4
20260505234123 64 263 1.0 8.0 0.00 0.01 0.00 59 1008.6
20260505233557 63 283 2.0 9.0 0.00 0.01 0.00 59 1008.6
20260505233052 63 261 0.0 10.0 0.00 0.01 0.00 58 1008.6
20260505232552 64 215 3.0 11.0 0.00 0.01 0.00 59 1008.6
20260505232047 64 221 2.0 11.0 0.00 0.01 0.00 60 1008.6
20260505231543 64 238 2.0 10.0 0.00 0.01 0.00 59 1008.6
20260505231101 64 192 1.0 10.0 0.00 0.01 0.00 59 1008.6
20260505230557 64 230 0.0 10.0 0.00 0.01 0.00 59 1008.6
20260505230052 64 236 1.0 10.0 0.00 0.01 0.00 57 1008.6
20260505225602 64 250 0.0 7.0 0.00 0.01 0.00 57 1008.7
20260505225056 64 273 1.0 7.0 0.00 0.01 0.00 54 1008.7
20260505224617 65 291 0.0 4.0 0.00 0.01 0.00 56 1008.7
20260505224107 65 206 0.0 4.0 0.00 0.01 0.00 50 1008.7
20260505223559 66 225 0.0 8.0 0.00 0.01 0.00 52 1008.7
20260505223102 66 247 0.0 8.0 0.00 0.01 0.00 52 1008.7
20260505222558 66 172 0.0 6.0 0.00 0.01 0.00 53 1008.8
20260505222054 66 275 0.0 4.0 0.00 0.01 0.00 50 1008.8
20260505221549 65 185 0.0 4.0 0.00 0.01 0.00 48 1008.8
20260505221104 65 292 0.0 4.0 0.00 0.01 0.00 50 1008.9
20260505220600 65 288 1.0 10.0 0.00 0.01 0.00 47 1008.9
20260505220056 65 271 3.0 10.0 0.00 0.01 0.00 44 1008.9
20260505215550 66 266 0.0 6.0 0.00 0.01 0.00 51 1008.8
20260505215046 66 275 1.0 7.0 0.00 0.01 0.00 48 1008.8
20260505214601 66 261 0.0 7.0 0.00 0.01 0.00 50 1008.8
20260505214055 66 234 1.0 6.0 0.00 0.01 0.00 50 1009.1
20260505213706 67 167 0.0 6.0 0.00 0.01 0.00 49 1009.1
20260505213052 67 204 1.0 9.0 0.00 0.01 0.00 50 1009.1
20260505212605 66 272 1.0 9.0 0.00 0.01 0.00 52 1009.1
20260505212106 66 300 2.0 5.0 0.00 0.01 0.00 50 1009.1
20260505211554 66 271 0.0 5.0 0.00 0.01 0.00 51 1009.1
20260505211053 66 263 2.0 5.0 0.00 0.01 0.00 50 1009.1
20260505210609 66 199 2.0 5.0 0.00 0.01 0.00 47 1009.1
20260505210122 65 263 1.0 9.0 0.00 0.01 0.00 52 1009.1
20260505205553 65 270 2.0 11.0 0.00 0.01 0.00 52 1009.2
20260505205108 65 200 2.0 11.0 0.00 0.01 0.00 51 1009.2
20260505204602 66 268 1.0 10.0 0.00 0.01 0.00 49 1009.2
20260505204058 66 277 0.0 10.0 0.00 0.01 0.00 51 1009.0
20260505203553 66 194 1.0 9.0 0.00 0.01 0.00 50 1009.0
20260505203105 66 260 3.0 9.0 0.00 0.01 0.00 50 1009.0
20260505202557 66 206 0.0 5.0 0.00 0.01 0.00 50 1009.0
20260505202201 66 246 0.0 4.0 0.00 0.01 0.00 49 1009.0
20260505201546 65 107 0.0 12.0 0.00 0.01 0.00 49 1009.0
20260505201114 66 208 1.0 12.0 0.00 0.01 0.00 47 1009.2
20260505200604 66 197 0.0 4.0 0.00 0.01 0.00 51 1009.2
20260505200100 66 221 1.0 4.0 0.00 0.01 0.00 52 1009.2
20260505195554 66 286 0.0 5.0 0.00 0.01 0.00 52 1009.3
20260505195049 66 275 1.0 5.0 0.00 0.01 0.00 53 1009.3
20260505194547 66 246 2.0 4.0 0.00 0.01 0.00 52 1009.3
20260505194118 65 209 0.0 5.0 0.00 0.01 0.00 55 1009.3
20260505193557 65 147 1.0 5.0 0.00 0.01 0.00 55 1009.3
20260505193053 65 163 0.0 5.0 0.00 0.01 0.00 56 1009.3
20260505192548 65 245 1.0 5.0 0.00 0.01 0.00 54 1009.3
20260505192103 65 267 0.0 5.0 0.00 0.01 0.00 55 1009.3
20260505191559 65 299 1.0 9.0 0.00 0.01 0.00 59 1009.3
20260505191054 65 289 3.0 9.0 0.00 0.01 0.00 59 1009.4
20260505190551 64 10 1.0 9.0 0.00 0.01 0.00 59 1009.4
20260505190047 63 293 1.0 4.0 0.00 0.01 0.00 58 1009.4
20260505185620 63 261 0.0 5.0 0.00 0.01 0.00 58 1009.3
20260505185054 64 205 2.0 6.0 0.00 0.01 0.00 57 1009.3
20260505184549 64 279 1.0 6.0 0.00 0.01 0.00 57 1009.3
20260505184139 64 244 1.0 6.0 0.00 0.01 0.00 56 1009.3
20260505183620 63 272 1.0 7.0 0.00 0.01 0.00 57 1009.3
20260505183121 63 198 1.0 7.0 0.00 0.01 0.00 58 1009.3
20260505182610 62 175 1.0 4.0 0.00 0.01 0.00 59 1009.3
20260505182045 62 254 0.0 9.0 0.00 0.01 0.00 60 1009.3
20260505181620 62 266 3.0 10.0 0.00 0.01 0.00 60 1009.3
20260505181054 62 184 2.0 10.0 0.00 0.01 0.00 59 1009.3
20260505180549 61 230 2.0 11.0 0.00 0.01 0.00 59 1009.3
20260505180048 61 198 1.0 11.0 0.00 0.01 0.00 61 1009.3
20260505175604 61 307 2.0 10.0 0.00 0.01 0.00 64 1009.2
20260505175059 62 221 2.0 9.0 0.00 0.01 0.00 64 1009.2
20260505174554 62 292 1.0 9.0 0.00 0.01 0.00 65 1009.2
20260505174050 61 292 1.0 6.0 0.00 0.01 0.00 65 1009.1
20260505173545 61 259 2.0 9.0 0.00 0.01 0.00 65 1009.1
20260505173142 60 251 2.0 9.0 0.00 0.01 0.00 66 1009.1
20260505172637 60 221 0.0 4.0 0.00 0.01 0.00 67 1008.8
20260505172100 61 221 0.0 4.0 0.00 0.01 0.00 67 1008.8
20260505171554 61 218 2.0 5.0 0.00 0.01 0.00 66 1008.8
20260505171052 60 268 2.0 12.0 0.00 0.01 0.00 65 1008.8
20260505170607 60 263 2.0 12.0 0.00 0.01 0.00 68 1008.8
20260505170044 60 196 3.0 12.0 0.00 0.01 0.00 66 1008.8
20260505165541 60 283 4.0 12.0 0.00 0.01 0.00 67 1008.8
20260505165120 60 258 3.0 12.0 0.00 0.01 0.00 67 1008.8
20260505164554 60 280 0.0 11.0 0.00 0.01 0.00 67 1008.8
20260505164048 60 274 2.0 11.0 0.00 0.01 0.00 67 1008.6
20260505163604 60 250 0.0 10.0 0.00 0.01 0.00 68 1008.6
20260505163059 60 202 1.0 11.0 0.00 0.01 0.00 68 1008.6
20260505162556 60 269 4.0 11.0 0.00 0.01 0.00 68 1008.2
20260505162120 59 309 2.0 9.0 0.00 0.01 0.00 68 1008.2
20260505161550 59 261 2.0 10.0 0.00 0.01 0.00 69 1008.2
20260505161045 59 263 3.0 11.0 0.00 0.01 0.00 69 1008.2
20260505160601 59 264 3.0 11.0 0.00 0.01 0.00 75 1008.2
20260505153052 58 275 2.0 6.0 0.00 0.01 0.00 76 1008.2
20260505152603 58 292 1.0 7.0 0.00 0.01 0.00 76 1008.2
20260505152120 58 259 1.0 11.0 0.00 0.01 0.00 76 1008.2
20260505151559 57 277 5.0 11.0 0.00 0.01 0.00 76 1008.2
20260505151052 57 280 3.0 9.0 0.00 0.01 0.00 76 1007.9
20260505150637 57 306 3.0 13.0 0.00 0.01 0.00 75 1007.9
20260505140545 55 228 3.0 7.0 0.00 0.01 0.00 84 1007.7
20260505124636 54 283 2.0 6.0 0.00 0.01 0.00 83 1007.6
20260505124051 54 266 0.0 0.0 0.00 0.01 0.00 84 1007.6
20260505123607 54 265 0.0 1.0 0.00 0.01 0.00 84 1007.6
20260505123101 54 271 0.0 1.0 0.00 0.01 0.00 84 1007.6
20260505122617 54 273 0.0 0.0 0.00 0.01 0.00 84 1007.5
20260505122111 54 274 0.0 5.0 0.00 0.01 0.00 84 1007.5
20260505121605 54 274 1.0 5.0 0.00 0.01 0.00 84 1007.5
20260505121113 54 273 0.0 0.0 0.00 0.01 0.00 84 1007.4
20260505120558 54 273 0.0 1.0 0.00 0.01 0.00 84 1007.4
20260505120114 54 273 0.0 5.0 0.00 0.01 0.00 85 1007.4
20260505115548 54 273 0.0 5.0 0.00 0.01 0.00 85 1007.4
20260505115144 54 286 0.0 4.0 0.00 0.01 0.00 85 1007.4
20260505114603 54 286 0.0 4.0 0.00 0.01 0.00 85 1007.4
20260505114045 54 270 0.0 1.0 0.00 0.01 0.00 85 1007.4
20260505113600 55 270 0.0 0.0 0.00 0.01 0.00 85 1007.4
20260505113056 55 270 0.0 0.0 0.00 0.01 0.00 85 1007.4
20260505112552 55 270 0.0 0.0 0.00 0.01 0.00 85 1007.5
20260505112047 55 269 0.0 0.0 0.00 0.01 0.00 84 1007.5
20260505111622 55 269 0.0 5.0 0.00 0.01 0.00 84 1007.5
20260505111057 55 269 0.0 5.0 0.00 0.01 0.00 84 1007.6
20260505110556 55 253 0.0 0.0 0.00 0.01 0.00 84 1007.6
20260505102100 55 252 0.0 4.0 0.00 0.01 0.00 85 1007.7
20260505101555 55 250 0.0 3.0 0.00 0.01 0.00 85 1007.7
20260505101049 55 248 0.0 1.0 0.00 0.01 0.00 84 1007.7
20260505100544 55 248 0.0 1.0 0.00 0.01 0.00 84 1007.7
20260505100043 55 248 0.0 1.0 0.00 0.01 0.00 84 1007.7
20260505095621 55 248 0.0 5.0 0.00 0.01 0.00 84 1007.8
20260505095054 55 248 1.0 5.0 0.00 0.01 0.00 83 1007.8
20260505094550 55 275 0.0 5.0 0.00 0.01 0.00 84 1007.8
20260505094045 55 280 0.0 4.0 0.00 0.01 0.00 83 1008.1
20260505093601 55 274 0.0 5.0 0.00 0.01 0.00 83 1008.1
20260505093055 55 275 1.0 9.0 0.00 0.01 0.00 83 1008.1
20260505092615 55 281 1.0 9.0 0.00 0.01 0.00 83 1008.2
20260505092102 55 281 1.0 9.0 0.00 0.01 0.00 84 1008.2
20260505091556 55 246 1.0 4.0 0.00 0.01 0.00 86 1008.2
20260505091055 55 277 0.0 0.0 0.00 0.01 0.00 87 1008.2
20260505090551 56 277 0.0 2.0 0.00 0.01 0.00 87 1008.2
20260505090046 56 279 0.0 2.0 0.00 0.01 0.00 88 1008.2
20260505085559 56 281 0.0 0.0 0.00 0.01 0.00 87 1008.2
20260505085042 56 281 0.0 0.0 0.00 0.01 0.00 87 1008.2
20260505084600 56 281 0.0 0.0 0.00 0.01 0.00 87 1008.2
20260505084054 56 281 0.0 3.0 0.00 0.01 0.00 87 1008.5
20260505083631 56 281 0.0 3.0 0.00 0.01 0.00 87 1008.5
20260505083100 56 280 0.0 0.0 0.00 0.01 0.00 87 1008.5
20260505082547 56 281 0.0 0.0 0.01 0.01 0.00 87 1008.6
20260505082103 56 281 0.0 0.0 0.01 0.01 0.00 88 1008.6
20260505081618 56 281 0.0 0.0 0.01 0.01 0.00 88 1008.6
20260505081052 56 281 0.0 0.0 0.01 0.01 0.00 87 1008.6
20260505080548 56 281 0.0 0.0 0.01 0.01 0.00 87 1008.6
20260505080124 56 281 0.0 0.0 0.01 0.01 0.00 87 1008.6
20260505075558 56 281 0.0 0.0 0.01 0.01 0.00 87 1008.8
20260505075052 56 281 0.0 0.0 0.01 0.01 0.00 87 1008.8
20260505074616 56 281 0.0 0.0 0.01 0.01 0.00 87 1008.8
20260505074101 56 281 0.0 0.0 0.01 0.01 0.00 87 1008.8
20260505073703 56 281 0.0 0.0 0.01 0.01 0.00 87 1008.8
20260505073108 56 281 0.0 0.0 0.01 0.01 0.01 87 1008.8
20260505072618 56 281 0.0 0.0 0.00 0.00 0.00 86 1008.8
20260505072058 56 281 0.0 0.0 0.00 0.00 0.00 86 1008.8
20260505071614 56 281 0.0 0.0 0.00 0.00 0.00 86 1008.8
20260505071047 56 281 0.0 0.0 0.00 0.00 0.00 86 1008.8
20260505070602 56 281 0.0 0.0 0.00 0.00 0.00 86 1008.8
20260505070117 57 281 0.0 0.0 0.00 0.00 0.00 85 1008.8
20260505065549 57 281 0.0 0.0 0.00 0.00 0.00 85 1008.8
20260505065104 57 281 0.0 0.0 0.00 0.00 0.00 85 1008.8
20260505064618 57 281 0.0 0.0 0.00 0.00 0.00 84 1008.8
20260505064054 57 281 0.0 0.0 0.00 0.00 0.00 84 1008.9
20260505063631 57 281 0.0 0.0 0.00 0.00 0.00 84 1008.9
20260505063045 57 281 0.0 1.0 0.00 0.00 0.00 84 1008.9
20260505062556 57 281 0.0 1.0 0.00 0.00 0.00 84 1008.9
20260505062111 57 276 0.0 0.0 0.00 0.00 0.00 84 1008.9
20260505061549 57 276 0.0 1.0 0.00 0.00 0.00 84 1008.9
20260505061044 57 276 0.0 1.0 0.00 0.00 0.00 84 1008.9
20260505060558 57 276 0.0 0.0 0.00 0.00 0.00 84 1008.9
20260505060140 57 276 0.0 0.0 0.00 0.00 0.00 84 1008.9
20260505055543 57 276 0.0 3.0 0.00 0.00 0.00 84 1009.0
20260505055055 57 276 0.0 3.0 0.00 0.00 0.00 84 1009.0
20260505054553 57 276 0.0 0.0 0.00 0.00 0.00 84 1009.0
20260505054108 57 276 0.0 0.0 0.00 0.00 0.00 84 1009.1
20260505053546 57 276 0.0 0.0 0.00 0.00 0.00 84 1009.1
20260505053101 57 276 0.0 0.0 0.00 0.00 0.00 84 1009.1
20260505052557 57 276 0.0 0.0 0.00 0.00 0.00 84 1009.2
20260505052051 57 276 0.0 1.0 0.00 0.00 0.00 84 1009.2
20260505051547 57 276 0.0 1.0 0.00 0.00 0.00 84 1009.2
20260505051042 57 275 0.0 0.0 0.00 0.00 0.00 84 1009.2
20260505050618 57 276 0.0 0.0 0.00 0.00 0.00 84 1009.2
20260505041642 57 252 0.0 0.0 0.00 0.00 0.00 82 1009.3
20260505041116 57 252 0.0 0.0 0.00 0.00 0.00 83 1009.3
20260505040607 57 252 0.0 0.0 0.00 0.00 0.00 83 1009.3
20260505040121 57 252 0.0 0.0 0.00 0.00 0.00 83 1009.3
20260505035555 57 252 0.0 2.0 0.00 0.00 0.00 83 1009.2
20260505035050 57 252 0.0 2.0 0.00 0.00 0.00 83 1009.2
20260505034546 57 205 0.0 2.0 0.00 0.00 0.00 83 1009.2
20260505034121 57 275 0.0 0.0 0.00 0.00 0.00 83 1009.2
20260505033556 57 275 0.0 0.0 0.00 0.00 0.00 83 1009.2
20260505033052 57 275 0.0 0.0 0.00 0.00 0.00 83 1009.2
20260505032546 57 275 0.0 0.0 0.00 0.00 0.00 82 1009.1
20260505032122 57 275 0.0 2.0 0.00 0.00 0.00 82 1009.1
20260505031556 57 275 0.0 2.0 0.00 0.00 0.00 81 1009.1
20260505031111 57 275 0.0 0.0 0.00 0.00 0.00 81 1008.8
20260505030646 57 276 0.0 0.0 0.00 0.00 0.00 81 1008.8
20260505030104 57 275 0.0 0.0 0.00 0.00 0.00 81 1008.8
20260505025610 57 275 0.0 0.0 0.00 0.00 0.00 80 1008.8
20260505025118 57 298 0.0 0.0 0.00 0.00 0.00 80 1008.8
20260505024553 57 302 0.0 0.0 0.00 0.00 0.00 80 1008.8
20260505024049 57 288 0.0 0.0 0.00 0.00 0.00 80 1008.9
20260505023543 57 288 0.0 0.0 0.00 0.00 0.00 79 1008.9
20260505023059 58 309 0.0 4.0 0.00 0.00 0.00 79 1008.9
20260505022554 58 311 0.0 4.0 0.00 0.00 0.00 79 1008.9
20260505022047 58 201 0.0 4.0 0.00 0.00 0.00 78 1008.9
20260505021541 58 237 1.0 5.0 0.00 0.00 0.00 78 1008.9
20260505021100 58 191 0.0 5.0 0.00 0.00 0.00 77 1008.9
20260505020557 58 233 0.0 5.0 0.00 0.00 0.00 77 1008.9
20260505020125 59 237 1.0 5.0 0.00 0.00 0.00 76 1008.9
20260505015614 59 207 0.0 4.0 0.00 0.00 0.00 76 1008.9
20260505015045 59 215 2.0 4.0 0.00 0.00 0.00 74 1008.9
20260505014650 60 248 0.0 4.0 0.00 0.00 0.00 74 1008.9
20260505014048 60 178 1.0 6.0 0.00 0.00 0.00 73 1008.8
20260505013603 60 216 0.0 3.0 0.00 0.00 0.00 71 1008.8
20260505013057 61 253 0.0 3.0 0.00 0.00 0.00 69 1008.8
20260505012612 61 254 0.0 3.0 0.00 0.00 0.00 68 1008.8
20260505012050 61 232 1.0 3.0 0.00 0.00 0.00 68 1008.8
20260505011545 61 251 0.0 7.0 0.00 0.00 0.00 68 1008.8
20260505011101 61 269 2.0 7.0 0.00 0.00 0.00 66 1008.8
20260505010556 62 284 2.0 7.0 0.00 0.00 0.00 66 1008.8
20260505010052 62 226 3.0 7.0 0.00 0.00 0.00 64 1008.8
20260505005606 62 283 0.0 3.0 0.00 0.00 0.00 64 1008.9
20260505005044 62 223 0.0 4.0 0.00 0.00 0.00 65 1008.9
20260505004638 62 174 0.0 4.0 0.00 0.00 0.00 66 1008.9
20260505004105 62 266 1.0 4.0 0.00 0.00 0.00 64 1009.1
20260505003655 62 224 2.0 4.0 0.00 0.00 0.00 63 1009.1